Weather History for North Las Vegas, NV

Change the Weather History Date:

Thursday, January 17, 2013

  Actual Average Record
Temperature  
Mean Temperature 46 °F -  
Max Temperature 59 °F 56 °F 75 °F (1959)
Min Temperature 34 °F 36 °F 19 °F (1961)
Degree Days  
Heating Degree Days 18    
Moisture  
Dew Point 12 °F    
Average Humidity 29    
Maximum Humidity 50    
Minimum Humidity 13    
Precipitation  
Precipitation 0.00 in - - ()
Sea Level Pressure  
Sea Level Pressure 30.42 in    
Wind  
Wind Speed 5 mph (WNW)    
Max Wind Speed 10 mph    
Max Gust Speed -    
Visibility 10 miles    
Events      
Averages and records for this station are not official NWS values.
T = Trace of Precipitation, MM = Missing Value Source: NWS Daily Summary

Daily Weather History Graph

Daily Weather History Graph

Search for Another Location

Airport:

Trip Planner

Search our weather history database for the weather conditions in past years. The results will help you decide how hot, cold, wet, or windy it might be!

Date:

Astronomy

Jan. 17, 2013 Rise Set
Actual Time 6:50 AM PST 4:51 PM PST
Civil Twilight 6:22 AM PST 5:19 PM PST
Nautical Twilight 5:51 AM PST 5:51 PM PST
Astronomical Twilight 5:20 AM PST 6:22 PM PST
Moon 10:12 AM PST (1/17) 11:33 PM PST (1/17)
Length of Visible Light 10h 57m
Length of Day
10h 01m
Waxing Crescent, 39% of the Moon is Illuminated
Jan 17
Waxing Crescent
Jan 18
First Quarter
Jan 26
Full
Feb 3
Last Quarter
Feb 9
New

Hourly Weather History & Observations

Time (PST) Temp. Windchill Dew Point Humidity Pressure Visibility Wind Dir Wind Speed Gust Speed Precip Events Conditions
12:53 AM 34.0 °F 28.8 °F 17.1 °F 50% 30.47 in 10.0 mi WNW 5.8 mph - N/A   Clear
1:53 AM 35.1 °F 29.3 °F 16.0 °F 46% 30.47 in 10.0 mi WNW 6.9 mph - N/A   Clear
2:53 AM 42.8 °F 38.6 °F 12.2 °F 29% 30.39 in 10.0 mi NNE 6.9 mph - N/A   Clear
3:53 AM 37.4 °F 30.3 °F 15.8 °F 41% 30.38 in 10.0 mi WNW 10.4 mph - N/A   Clear
4:53 AM 37.9 °F 35.5 °F 15.1 °F 39% 30.45 in 10.0 mi West 3.5 mph - N/A   Clear
5:53 AM 35.1 °F 28.6 °F 14.0 °F 42% 30.47 in 10.0 mi NW 8.1 mph - N/A   Clear
6:53 AM 35.1 °F 32.2 °F 12.9 °F 40% 30.49 in 10.0 mi NW 3.5 mph - N/A   Clear
7:53 AM 39.0 °F 34.8 °F 12.0 °F 33% 30.51 in 10.0 mi North 5.8 mph - N/A   Clear
8:53 AM 42.1 °F 38.4 °F 15.1 °F 34% 30.52 in 10.0 mi SW 5.8 mph - N/A   Clear
9:53 AM 46.9 °F - 12.9 °F 25% 30.52 in 10.0 mi Calm Calm - N/A   Clear
10:53 AM 50.0 °F - 12.0 °F 22% 30.48 in 10.0 mi Calm Calm - N/A   Clear
11:53 AM 53.1 °F - 10.0 °F 18% 30.43 in 10.0 mi ESE 3.5 mph - N/A   Clear
12:53 PM 55.0 °F - 9.0 °F 16% 30.40 in 10.0 mi SSE 4.6 mph - N/A   Clear
1:53 PM 57.0 °F - 8.1 °F 14% 30.38 in 10.0 mi SSE 3.5 mph - N/A   Clear
2:53 PM 59.0 °F - 7.0 °F 13% 30.35 in 10.0 mi South 3.5 mph - N/A   Clear
3:53 PM 59.0 °F - 8.1 °F 13% 30.35 in 10.0 mi Calm Calm - N/A   Clear
4:53 PM 57.0 °F - 9.0 °F 15% 30.36 in 10.0 mi WSW 3.5 mph - N/A   Clear
5:53 PM 51.1 °F - 10.9 °F 20% 30.38 in 10.0 mi West 3.5 mph - N/A   Clear
6:53 PM 45.0 °F 41.2 °F 12.0 °F 26% 30.39 in 10.0 mi NW 6.9 mph - N/A   Clear
7:53 PM 42.1 °F 37.7 °F 10.9 °F 28% 30.39 in 10.0 mi NW 6.9 mph - N/A   Clear
8:53 PM 39.9 °F 35.1 °F 12.9 °F 33% 30.39 in 10.0 mi NW 6.9 mph - N/A   Clear
9:53 PM 41.0 °F - 12.9 °F 32% 30.39 in 10.0 mi Calm Calm - N/A   Clear
10:53 PM 37.9 °F 32.7 °F 14.0 °F 38% 30.38 in 10.0 mi WNW 6.9 mph - N/A   Clear
11:53 PM 37.0 °F 32.4 °F 12.9 °F 37% 30.39 in 10.0 mi NNW 5.8 mph - N/A   Clear